Location: Braunsdorf
(50.7357°N, 11.9136°E)
Time: 06:30:29
(UTC+00:00)

COSMO-SKYMED 1 - Pass Details

Date: 17 February 2020
Orbit: 621 x 623 km, 97.9° (Epoch: 09 April)

Event Time Altitude Azimuth Distance (km) Brightness Sun altitude
Rises 05:36:28 0° 211° (SSW) 2,895 5.8 -7.8°
Reaches altitude 10° 05:39:26 10° 233° (SW) 1,995 4.8 -7.4°
Maximum altitude 05:42:07 16° 271° (W) 1,644 4.1 -6.9°
Drops below altitude 10° 05:44:48 10° 309° (NW) 2,006 4.6 -6.5°
Sets 05:47:48 0° 332° (NNW) 2,919 5.6 -6.0°
